Fort Irwin/Barstow, Bicycle L, CA

3:11 AM PDT on April 25, 2017 (GMT -0700)
Fort Irwin/Barstow, Bicycle L

Weather History for KBYS - February, 2014

Change the Weather History Date:

Monday, February 10, 2014

  Actual Average (KDAG) Record (KDAG)
Temperature  
Mean Temperature 62 °F -  
Max Temperature 70 °F 63 °F 81 °F (1951)
Min Temperature 54 °F 40 °F 24 °F (1949)
Degree Days  
Heating Degree Days 3    
Growing Degree Days 12 (Base 50)    
Moisture  
Dew Point 32 °F    
Average Humidity 36    
Maximum Humidity 57    
Minimum Humidity 22    
Precipitation  
Precipitation 0.00 in - - ()
Sea Level Pressure  
Sea Level Pressure 30.00 in    
Wind  
Wind Speed 11 mph (NW)    
Max Wind Speed 21 mph    
Max Gust Speed 31 mph    
Visibility 10 miles    
Events      
Averages and records for this station are not official NWS values.
T = Trace of Precipitation, MM = Missing Value Source: NWS Daily Summary

Daily Weather History Graph

Daily Weather History Graph

Search for Another Location

Airport or City:

Trip Planner

Search our weather history database for the weather conditions in past years. The results will help you decide how hot, cold, wet, or windy it might be!

Date:

Astronomy

Feb. 10, 2014 Rise Set
Actual Time 6:37 AM PST 5:24 PM PST
Civil Twilight 6:11 AM PST 5:50 PM PST
Nautical Twilight 5:41 AM PST 6:20 PM PST
Astronomical Twilight 5:12 AM PST 6:49 PM PST
Moon 2:00 PM PST (2/10) 3:30 AM PST (2/10)
Length of Visible Light 11h 38m
Length of Day
10h 46m
Waxing Gibbous, 85% of the Moon is Illuminated
Feb 10
Waxing Gibbous
Feb 14
Full
Feb 22
Last Quarter
Mar 1
New
Mar 8
First Quarter

Hourly Weather History & Observations

Time (PST) Temp. Dew Point Humidity Pressure Visibility Wind Dir Wind Speed Gust Speed Precip Events Conditions
12:55 AM 56.3 °F 37.4 °F 49% 29.96 in 10.0 mi WNW 2.3 mph - N/A   Scattered Clouds
1:55 AM 58.6 °F 35.6 °F 42% 29.92 in 10.0 mi SSW 11.5 mph 21.9 mph N/A   Mostly Cloudy
2:55 AM 54.7 °F 38.5 °F 54% 29.94 in 10.0 mi SW 9.2 mph - N/A   Partly Cloudy
3:55 AM 54.0 °F 38.5 °F 56% 29.93 in 10.0 mi WNW 5.8 mph - N/A   Clear
4:55 AM 55.8 °F 39.4 °F 54% 29.94 in 10.0 mi Variable 1.2 mph - N/A   Clear
5:55 AM 55.9 °F 40.1 °F 55% 29.96 in 10.0 mi South 9.2 mph 12.7 mph N/A   Clear
6:55 AM 55.4 °F 40.5 °F 57% 29.99 in 10.0 mi SW 10.4 mph - N/A   Clear
7:55 AM 56.1 °F 40.3 °F 55% 30.02 in 10.0 mi WNW 17.3 mph 23.0 mph N/A   Clear
8:55 AM 59.4 °F 38.7 °F 46% 30.04 in 10.0 mi NNW 15.0 mph 31.1 mph N/A   Clear
9:55 AM 62.2 °F 36.7 °F 39% 30.04 in 10.0 mi West 19.6 mph - N/A   Clear
10:55 AM 66.0 °F 34.2 °F 31% 30.03 in 10.0 mi NNW 16.1 mph 25.3 mph N/A   Clear
11:55 AM 67.5 °F 34.3 °F 29% 30.03 in 10.0 mi North 15.0 mph 25.3 mph N/A   Clear
12:55 PM 68.0 °F 32.5 °F 27% 30.01 in 10.0 mi North 12.7 mph 18.4 mph N/A   Clear
1:55 PM 70.3 °F 30.0 °F 22% 29.96 in 10.0 mi NNW 12.7 mph 18.4 mph N/A   Clear
2:55 PM 69.3 °F 29.7 °F 23% 29.98 in 10.0 mi NNW 17.3 mph 21.9 mph N/A   Clear
3:55 PM 67.6 °F 27.9 °F 23% 29.99 in 10.0 mi North 16.1 mph 23.0 mph N/A   Clear
4:55 PM 66.2 °F 25.5 °F 22% 29.99 in 10.0 mi NNW 19.6 mph 26.5 mph N/A   Clear
5:55 PM 63.3 °F 25.3 °F 24% 30.01 in 10.0 mi NW 15.0 mph - N/A   Clear
6:55 PM 61.9 °F 25.9 °F 25% 30.02 in 10.0 mi NW 11.5 mph 20.7 mph N/A   Clear
7:56 PM 59.7 °F 25.2 °F 27% 30.04 in 10.0 mi NW 19.6 mph 23.0 mph N/A   Clear
8:55 PM 59.7 °F 23.4 °F 25% 30.04 in 10.0 mi NW 20.7 mph 26.5 mph N/A   Clear
9:55 PM 57.4 °F 21.6 °F 25% 30.04 in 10.0 mi NW 16.1 mph 21.9 mph N/A   Clear
10:55 PM 57.0 °F 21.2 °F 25% 30.05 in 10.0 mi NNW 16.1 mph - N/A   Clear
11:55 PM 57.2 °F 21.6 °F 25% 30.05 in 10.0 mi NNW 10.4 mph - N/A   Clear